Location: Bailleul
(50.3375°N, 2.8513°E)
Time: 10:08:19
(UTC+00:00)

Resurs 01 Rocket - Pass Details

Date: 19 April 2021
Orbit: 634 x 644 km, 98.0° (Epoch: 05 May)

Event Time Altitude Azimuth Distance (km) Brightness Sun altitude
Exits shadow 19:36:06 - 139° (SE) 2,218 3.8 -7.6°
Reaches altitude 10° 19:36:34 10° 137° (SE) 2,039 3.6 -7.7°
Maximum altitude 19:40:44 41° 68° (ENE) 945 2.2 -8.2°
Drops below altitude 10° 19:44:55 10° 359° (N) 2,054 4.7 -8.8°
Sets 19:47:13 0° 352° (N) 2,968 5.7 -9.1°
